Probability
0 0 0 0 0 0 0 0 0 0 0 0 0 0 0 0 0 0 0 0 0 1 2 3 3 4 4 4 5 6 6 4 1 1 1 1 1 2 3 3 2 2 3 4
0 0 0 0 0 0 0 0 0 0 0 0 0 0 0 0 0 0 0 0 0 0 1 3 3 4 5 6 6 6 5 2 1 1 1 1 2 2 3 3 2 1 1 1
0 0 0 0 0 0 0 0 0 0 0 0 0 0 0 0 0 0 0 0 0 0 1 2 3 4 5 6 6 5 4 1 0 1 1 1 2 2 2 3 2 1 0 0
0 0 0 0 0 0 0 0 0 0 0 0 0 0 0 0 0 0 0 0 0 1 1 2 2 3 4 4 3 3 2 0 0 0 0 1 2 1 1 2 2 1 0 0
0 0 0 0 0 0 0 0 0 0 0 0 0 0 0 0 0 0 0 0 1 1 1 1 1 1 1 1 1 1 0 0 0 0 0 1 1 1 0 1 1 0 0 0
0 0 0 0 0 0 0 0 0 0 0 0 0 0 0 0 0 0 0 0 1 1 1 0 0 0 0 0 0 0 0 0 0 0 0 0 0 0 0 0 0 0 0 0
0 0 0 0 0 0 0 0 0 0 0 0 0 0 0 0 0 0 0 0 0 0 0 0 0 0 0 0 0 0 0 0 0 0 0 0 0 0 0 0 0 0 0 0
0 0 0 0 0 0 0 0 0 0 0 0 0 0 0 0 0 0 0 0 0 0 0 0 0 0 0 0 0 0 0 0 0 0 0 0 0 0 0 0 0 0 0 0
0 0 0 0 0 0 0 0 0 0 0 0 0 0 0 0 0 0 0 0 0 0 0 0 0 0 0 0 0 0 0 0 0 0 0 0 0 0 0 0 0 0 0 0
0 0 0 0 0 0 0 0 0 0 0 0 0 0 0 0 0 0 0 0 0 0 0 0 0 0 0 0 0 0 0 0 0 0 0 0 0 0 0 0 0 0 0 0
0 0 0 0 0 0 0 0 0 0 0 0 0 0 0 0 0 0 0 0 0 0 0 0 0 0 0 0 0 0 0 0 0 0 0 0 1 1 0 0 0 0 0 0
0 0 0 0 0 0 0 0 0 0 0 0 0 0 0 0 0 0 0 0 0 0 0 0 0 0 0 0 0 0 0 0 0 0 0 0 1 2 1 0 0 0 0 0
0 0 0 0 0 0 0 0 0 0 0 0 0 0 0 0 0 0 0 0 0 0 0 0 0 0 0 0 0 0 0 0 0 0 0 0 1 1 1 0 0 0 0 0
0 0 0 0 0 0 0 0 0 0 0 0 0 0 0 0 0 0 0 0 0 0 0 0 0 0 0 0 0 0 0 0 0 0 0 0 0 0 0 0 0 0 0 0
0 0 0 0 0 0 0 0 0 0 0 0 0 0 0 0 0 0 0 0 0 0 0 0 0 0 0 0 0 0 0 0 0 0 0 0 0 0 0 0 0 0 0 0
0 0 0 0 0 0 0 0 0 0 0 0 0 0 0 0 0 0 0 0 0 0 0 0 0 0 0 0 0 0 0 0 0 0 0 0 0 0 0 0 0 0 0 0
0 0 0 0 0 0 0 0 0 0 0 0 0 0 0 0 0 0 0 0 0 0 0 0 0 0 0 0 0 0 0 0 0 0 0 0 0 0 0 0 0 0 0 0
0 0 0 0 0 0 0 0 0 0 0 0 0 0 0 0 0 0 0 0 0 0 0 0 0 0 0 0 0 0 0 0 0 0 0 0 0 0 0 0 0 0 0 0
0 0 0 0 0 0 0 0 0 0 0 0 0 0 0 0 0 0 0 0 0 0 0 0 0 0 0 0 0 0 0 0 0 0 0 0 0 0 0 0 0 0 0 0
0 0 0 0 0 0 0 0 0 0 0 0 0 0 0 0 0 0 0 0 0 0 0 0 0 0 0 0 0 0 0 0 0 0 0 0 0 0 0 0 0 0 0 0
0 0 0 0 0 0 0 0 0 0 0 0 0 0 0 0 0 0 0 0 0 0 0 0 0 0 0 0 0 0 0 0 0 0 0 0 0 0 0 0 0 0 0 0
0 0 0 0 0 0 0 0 0 0 0 0 0 0 0 0 0 0 0 0 0 0 0 0 0 0 0 0 0 0 0 0 0 0 0 0 0 0 0 0 0 0 0 0
0 0 0 0 0 0 0 0 0 0 0 0 0 0 0 0 0 0 0 0 0 0 0 0 0 0 0 0 0 0 0 0 0 0 0 0 0 0 0 0 0 0 0 0
0 0 0 0 0 0 0 0 0 0 0 0 0 0 0 0 0 0 0 0 0 0 0 0 0 0 0 0 0 0 0 0 0 0 0 0 0 0 0 0 0 0 0 0
0 0 0 0 0 0 0 0 0 0 0 0 0 0 0 0 0 0 0 0 0 0 0 0 0 0 0 0 0 0 0 0 0 0 0 0 0 0 0 0 0 0 0 0
0 0 0 0 0 0 0 0 0 0 0 0 0 0 0 0 0 0 0 0 0 0 0 0 0 0 0 0 0 0 0 0 0 0 0 0 0 0 0 0 0 0 0 0
0 0 0 0 0 0 0 0 0 0 0 0 0 0 0 0 0 0 0 0 0 0 0 0 0 0 0 0 0 0 0 0 0 0 0 0 0 0 0 0 0 0 0 0
Wind_Speed
6 3 4 6 7 7 9 9 9 7 6 5 3 2 2 1 0 1 1 1 2 2 2 2 2 3 3 3 3 3 3 2 2 2 2 3 3 2 2 2 2 1 1 2
6 4 5 7 7 8 9 9 10 9 8 3 2 1 1 1 1 1 1 1 1 2 2 2 2 2 2 3 3 3 3 3 2 2 2 2 2 2 1 1 2 2 1 1
5 4 5 8 6 7 8 7 8 9 5 1 2 1 2 2 1 2 2 1 1 1 1 1 1 2 2 2 2 3 2 2 2 2 2 2 2 2 2 2 2 2 2 1
5 5 8 1 2 3 5 5 6 6 3 2 2 2 2 2 2 2 1 1 1 1 1 1 1 1 1 1 2 2 2 2 2 2 2 2 2 2 2 2 2 2 2 2
5 7 7 3 3 3 4 5 3 4 2 1 1 2 2 1 1 2 2 1 1 1 1 0 0 0 1 1 1 1 1 1 1 2 2 2 3 3 2 2 2 3 2 2
6 7 6 1 3 1 4 5 2 2 2 2 3 4 1 1 2 2 2 1 0 0 0 0 0 0 1 1 1 1 1 1 1 2 2 2 3 3 2 2 2 2 2 2
9 8 5 1 2 4 6 1 2 1 2 3 4 3 3 2 2 2 1 1 0 1 0 1 1 1 1 1 1 1 1 1 1 1 2 2 2 2 2 2 2 2 2 2
7 8 5 4 4 4 2 3 0 1 2 2 3 2 2 1 1 1 1 1 1 1 1 1 1 2 2 1 1 1 1 1 1 1 1 1 2 2 2 2 3 3 3 2
5 3 3 2 3 1 2 2 1 2 2 2 3 3 2 2 2 1 1 1 1 1 1 1 2 2 2 1 1 1 1 1 2 2 1 1 2 2 2 2 2 2 3 3
6 5 3 3 3 2 2 2 2 2 2 2 3 3 3 3 2 1 1 1 2 2 2 2 2 3 2 1 1 2 2 2 2 2 2 2 1 2 2 2 3 3 3 3
8 6 4 4 3 2 1 2 2 2 2 3 3 3 3 3 2 2 1 1 2 2 2 2 2 2 2 2 1 2 3 2 2 2 2 2 2 2 2 2 2 3 3 3
6 4 5 4 2 2 2 2 2 2 2 2 2 2 3 3 2 2 2 1 2 2 2 2 2 2 2 2 2 3 3 3 2 2 2 2 2 2 1 2 1 2 3 4
6 5 4 3 3 3 3 3 3 3 3 2 2 2 2 2 2 2 2 2 2 2 3 3 3 3 3 3 3 4 4 4 3 3 3 3 3 3 2 2 4 4 4 4
4 3 4 4 3 3 3 3 2 3 3 2 2 2 2 2 2 2 3 3 2 2 3 3 3 4 4 3 4 5 5 4 3 3 3 3 4 4 3 3 3 3 4 5
5 5 5 4 3 3 2 2 2 2 2 2 2 2 2 2 2 3 3 2 2 3 3 3 3 3 3 4 4 5 4 3 3 3 3 4 4 4 4 4 4 3 2 2
4 4 4 4 3 3 3 3 3 3 3 3 2 3 3 3 2 2 2 2 3 3 3 4 4 3 3 4 4 4 3 4 4 3 3 3 3 4 4 4 4 4 3 2
5 4 4 4 4 4 4 4 4 4 4 3 3 3 2 2 2 2 2 2 3 4 4 4 4 4 3 3 4 3 3 3 4 4 3 3 3 4 4 4 4 4 3 2
6 6 5 5 5 4 4 4 4 4 3 3 2 2 3 3 3 3 3 2 3 3 4 4 4 4 4 4 4 3 3 3 3 3 3 3 3 4 4 4 4 4 3 3
5 4 4 4 4 4 4 4 4 3 3 3 3 3 3 3 3 3 3 3 3 4 4 4 4 4 4 4 4 3 4 4 3 3 3 3 4 3 4 3 3 3 3 3
3 3 3 4 4 4 4 4 4 3 3 3 3 3 3 3 3 3 3 4 4 4 4 4 5 5 4 4 4 3 4 4 4 3 3 3 4 4 4 3 3 3 4 4
2 3 3 3 3 3 3 4 4 4 4 4 4 4 4 4 4 3 3 4 4 4 4 4 4 4 4 3 4 3 3 3 3 3 3 4 4 4 4 4 4 4 4 4
2 2 3 3 3 3 3 3 3 3 4 4 4 4 4 4 4 4 4 4 3 3 3 3 3 3 4 4 3 2 3 3 3 3 3 3 4 4 4 4 4 4 4 4
2 3 3 3 3 3 3 2 3 3 3 4 4 4 4 3 3 3 3 2 2 3 3 3 3 4 4 3 2 3 3 3 3 3 3 3 4 4 4 4 4 4 4 4
2 2 3 3 3 3 3 2 3 3 3 3 3 3 3 3 3 2 2 2 2 3 3 2 3 3 4 2 2 2 3 3 3 3 3 3 3 3 4 4 4 4 4 5
2 2 2 2 2 2 3 3 3 3 3 2 2 2 2 2 2 2 2 2 2 2 2 2 3 3 2 2 2 2 2 2 3 3 3 3 3 4 4 4 4 4 4 5
2 2 2 3 2 2 2 2 2 2 2 2 2 2 1 1 2 2 1 1 2 2 2 2 2 2 2 2 2 2 2 2 2 3 3 3 4 4 4 4 5 4 4 5
2 2 2 2 1 1 2 2 2 2 2 2 2 2 1 1 1 1 1 1 1 1 2 1 1 2 2 2 2 2 2 2 2 2 3 3 3 3 4 4 4 4 4 4
Wind_Direction
265 272 254 250 239 224 231 247 261 265 267 278 286 293 298 297 229 190 195 212 213 211 211 214 221 225 223 224 226 228 234 241 250 265 272 265 255 238 214 212 226 235 229 217
239 233 244 251 245 234 236 243 249 259 262 284 298 291 291 294 292 256 247 238 230 219 218 221 224 229 232 232 233 237 241 244 247 248 253 259 251 243 224 202 212 219 217 224
246 232 248 248 236 231 231 236 246 253 262 267 264 273 283 290 288 276 274 265 249 243 241 234 235 233 235 236 236 241 249 257 255 242 227 237 239 232 223 215 213 221 222 220
258 240 242 194 103 233 241 248 251 259 261 252 278 282 277 288 308 316 314 293 284 279 280 304 302 261 237 219 226 233 249 266 269 254 239 235 229 230 232 234 224 229 236 242
245 251 260 226 195 212 237 253 251 236 233 247 260 251 236 56 356 326 321 301 288 312 312 291 313 305 203 182 195 231 264 267 259 243 232 228 224 227 235 237 239 243 239 245
233 248 252 185 127 193 242 239 170 215 240 255 254 255 272 3 317 309 313 319 338 296 343 289 300 291 222 201 218 262 270 267 260 244 229 225 226 227 231 230 238 242 240 245
234 245 258 91 135 199 233 348 101 224 251 243 253 300 332 305 294 295 292 282 215 215 262 297 277 258 251 265 274 286 281 280 271 245 235 231 230 222 215 216 224 236 242 245
226 236 238 129 167 219 323 34 43 287 280 264 274 305 304 273 272 273 251 222 220 236 271 296 273 246 246 276 306 318 294 286 280 274 261 228 217 221 218 213 225 239 249 250
237 258 16 170 213 319 352 315 315 303 295 275 261 265 270 263 266 261 246 231 237 243 262 280 282 265 261 280 302 297 283 264 270 268 264 251 232 223 220 218 229 241 247 251
250 252 253 250 251 262 273 295 309 306 290 266 262 270 273 269 259 253 255 247 244 243 249 265 284 286 284 287 283 279 282 273 266 267 268 250 232 230 229 227 230 236 243 251
253 258 257 246 242 248 265 289 303 309 283 267 264 267 267 261 253 251 248 255 257 257 272 291 296 296 300 289 268 267 269 275 265 265 257 246 234 237 241 243 256 254 255 256
257 265 269 276 290 271 254 264 279 281 278 269 263 262 258 257 254 253 253 256 273 288 300 303 299 297 299 283 267 265 267 270 270 255 247 242 237 232 201 231 216 239 265 274
287 302 292 288 276 270 264 267 269 266 265 264 265 261 244 244 243 241 248 257 271 289 296 298 296 292 289 278 268 266 269 268 266 260 245 243 240 239 241 219 211 222 235 246
273 274 264 264 273 276 272 266 258 259 267 267 262 254 254 252 249 252 257 259 263 273 281 288 288 291 294 287 271 264 264 262 259 258 253 246 242 241 244 247 239 231 215 220
252 259 267 273 264 264 255 236 237 249 264 267 258 249 249 255 258 266 276 276 269 270 277 279 279 289 294 286 274 267 266 263 258 257 255 249 242 241 243 245 250 252 251 211
251 252 246 246 251 252 245 239 247 259 263 261 258 260 260 264 271 273 272 264 265 270 275 276 277 287 287 281 279 270 267 276 275 263 257 248 241 240 241 243 248 252 254 259
235 243 245 253 259 259 256 257 261 264 266 264 261 261 257 258 265 269 271 266 269 275 279 280 284 291 284 278 274 268 266 256 255 256 252 250 246 245 246 248 251 254 259 267
248 252 248 248 255 260 261 260 261 263 268 271 259 248 243 243 252 264 272 274 277 282 287 290 295 294 284 278 275 267 260 256 254 259 263 256 252 252 250 251 253 256 259 245
250 248 251 255 262 263 262 260 260 263 262 255 246 245 248 252 259 264 265 265 269 274 283 292 298 282 278 276 277 261 258 257 255 256 258 254 246 248 250 252 256 261 261 260
250 251 252 258 261 259 259 259 260 259 257 249 247 249 252 255 260 262 263 264 267 280 288 292 283 276 276 273 274 265 259 256 255 256 256 252 250 249 248 250 256 263 266 264
249 248 250 256 259 261 259 259 256 253 252 245 243 249 253 255 255 255 257 264 275 292 291 288 276 274 274 280 270 263 259 258 258 258 256 253 253 253 252 253 256 258 262 268
260 251 252 259 261 265 267 263 256 252 250 248 247 252 255 254 253 255 257 270 282 293 285 273 273 287 294 287 265 262 257 257 258 256 253 253 253 254 256 259 261 262 263 265
266 259 255 257 258 267 271 267 260 252 250 249 249 249 251 257 254 254 264 277 282 289 288 285 303 297 284 268 263 257 253 253 254 252 250 251 254 257 259 259 259 261 264 265
272 262 261 263 261 261 266 274 269 257 256 258 257 256 256 257 257 261 277 280 287 281 281 308 312 293 273 260 259 256 255 253 252 253 254 255 258 260 261 263 262 261 261 263
267 259 258 259 257 263 274 281 273 264 260 261 263 261 258 256 263 267 268 260 268 271 287 295 285 283 268 269 262 259 260 262 264 262 258 259 260 261 262 264 265 266 264 263
276 266 258 257 264 270 271 264 262 262 265 272 278 279 278 275 271 270 273 262 263 282 290 283 266 258 261 265 265 267 268 266 263 262 265 268 267 267 267 268 270 270 270 268
269 264 256 255 260 269 269 262 263 267 269 271 280 289 292 295 295 289 286 286 284 280 289 289 277 269 269 268 265 266 268 269 267 266 267 269 273 272 271 271 273 273 274 272